Melilla, Spain

3:42 AM CEST on May 01, 2017 (GMT +0200)
Melilla

Weather History for GEML - July, 2013

Change the Weather History Date:

Thursday, July 18, 2013

  Actual Average Record
Temperature  
Mean Temperature 77 °F -  
Max Temperature 80 °F 85 °F 95 °F (2007)
Min Temperature 74 °F 72 °F 68 °F (1996)
Cooling Degree Days 12    
Growing Degree Days 27 (Base 50)    
Moisture  
Dew Point 68 °F    
Average Humidity 72    
Maximum Humidity 78    
Minimum Humidity 65    
Precipitation  
Precipitation 0.00 in 0.00 in - ()
Sea Level Pressure  
Sea Level Pressure 30.05 in    
Wind  
Wind Speed 6 mph ()    
Max Wind Speed 10 mph    
Max Gust Speed -    
Visibility 6.3 miles    
Events      
Averages and records for this station are not official NWS values.
T = Trace of Precipitation, MM = Missing Value Source: Averaged Metar Reports

Daily Weather History Graph

Daily Weather History Graph

Search for Another Location

Airport or City:

Trip Planner

Search our weather history database for the weather conditions in past years. The results will help you decide how hot, cold, wet, or windy it might be!

Date:

Astronomy

Jul. 18, 2013 Rise Set
Actual Time 7:10 AM CEST 9:25 PM CEST
Civil Twilight 6:41 AM CEST 9:54 PM CEST
Nautical Twilight 6:06 AM CEST 10:29 PM CEST
Astronomical Twilight 5:27 AM CEST 11:07 PM CEST
Moon 5:07 PM CEST (7/18) 2:47 AM CEST (7/18)
Length of Visible Light 15h 12m
Length of Day
14h 14m
Waxing Gibbous, 75% of the Moon is Illuminated
Jul 18
Waxing Gibbous
Jul 22
Full
Jul 29
Last Quarter
Aug 6
New
Aug 14
First Quarter

Hourly Weather History & Observations

Time (CEST) Temp. Heat Index Dew Point Humidity Pressure Visibility Wind Dir Wind Speed Gust Speed Precip Events Conditions
6:00 AM 75.2 °F - 68.0 °F 78% 30.06 in 6.2 mi ENE 5.8 mph - N/A   Mostly Cloudy
6:30 AM 75.2 °F - 68.0 °F 78% 30.06 in 6.2 mi ENE 6.9 mph - N/A   Mostly Cloudy
7:00 AM 75.2 °F - 68.0 °F 78% 30.06 in 6.2 mi East 4.6 mph - N/A   Mostly Cloudy
7:30 AM 75.2 °F - 68.0 °F 78% 30.06 in 6.2 mi ESE 5.8 mph - N/A   Mostly Cloudy
8:00 AM 75 °F - 68 °F 74% 30.06 in 7 mi East 5.8 mph - -   Mostly Cloudy
8:00 AM 75.2 °F - 68.0 °F 78% 30.06 in 6.2 mi East 5.8 mph - N/A   Mostly Cloudy
8:30 AM 77.0 °F - 68.0 °F 74% 30.06 in 6.2 mi ESE 3.5 mph - N/A   Partly Cloudy
9:00 AM 77.0 °F - 68.0 °F 74% 30.06 in 6.2 mi East 5.8 mph - N/A   Partly Cloudy
9:30 AM 77.0 °F - 68.0 °F 74% 30.06 in 6.2 mi East 8.1 mph - N/A   Scattered Clouds
10:00 AM 77.0 °F - 68.0 °F 74% 30.06 in 6.2 mi East 5.8 mph - N/A   Mostly Cloudy
10:30 AM 77.0 °F - 66.2 °F 69% 30.06 in 6.2 mi SE 4.6 mph - N/A   Mostly Cloudy
11:00 AM 78.8 °F - 68.0 °F 69% 30.06 in 6.2 mi East 6.9 mph - N/A   Mostly Cloudy
11:30 AM 78.8 °F - 68.0 °F 69% 30.06 in 6.2 mi ENE 8.1 mph - N/A   Scattered Clouds
12:00 PM 78.8 °F - 68.0 °F 69% 30.06 in 6.2 mi East 9.2 mph - N/A   Partly Cloudy
12:30 PM 78.8 °F - 68.0 °F 69% 30.06 in 6.2 mi ENE 9.2 mph - N/A   Partly Cloudy
1:00 PM 80.6 °F 83.2 °F 68.0 °F 65% 30.06 in 6.2 mi ENE 8.1 mph - N/A   Partly Cloudy
1:30 PM 78.8 °F - 68.0 °F 69% 30.06 in 6.2 mi ENE 8.1 mph - N/A   Partly Cloudy
2:00 PM 80 °F - 70 °F 65% 30.06 in 9 mi NE 8.1 mph - -   Scattered Clouds
2:00 PM 78.8 °F - 68.0 °F 69% 30.06 in 6.2 mi NE 8.1 mph - N/A   Partly Cloudy
2:30 PM 80.6 °F 83.2 °F 68.0 °F 65% 30.06 in 6.2 mi East 6.9 mph - N/A   Partly Cloudy
3:00 PM 80.6 °F 83.2 °F 68.0 °F 65% 30.04 in 6.2 mi ENE 8.1 mph - N/A   Partly Cloudy
3:30 PM 80.6 °F 83.2 °F 68.0 °F 65% 30.04 in 6.2 mi ENE 8.1 mph - N/A   Partly Cloudy
4:30 PM 78.8 °F - 68.0 °F 69% 30.04 in 6.2 mi ENE 8.1 mph - N/A   Partly Cloudy
5:00 PM 78.8 °F - 69.8 °F 74% 30.04 in 6.2 mi NE 6.9 mph - N/A   Partly Cloudy
5:30 PM 78.8 °F - 68.0 °F 69% 30.04 in 6.2 mi ENE 8.1 mph - N/A   Partly Cloudy
6:00 PM 78.8 °F - 69.8 °F 74% 30.01 in 6.2 mi ENE 9.2 mph - N/A   Mostly Cloudy
6:30 PM 78.8 °F - 69.8 °F 74% 30.01 in 6.2 mi ENE 10.4 mph - N/A   Mostly Cloudy
7:00 PM 77.0 °F - 69.8 °F 78% 30.01 in 6.2 mi ENE 8.1 mph - N/A   Mostly Cloudy
7:30 PM 77.0 °F - 69.8 °F 78% 30.01 in 6.2 mi East 8.1 mph - N/A   Mostly Cloudy
8:00 PM 77.0 °F - 69.8 °F 78% 30.01 in 6.2 mi ENE 6.9 mph - N/A   Mostly Cloudy
8:30 PM 77.0 °F - 69.8 °F 78% 30.01 in 6.2 mi ESE 6.9 mph - N/A   Scattered Clouds